Flag for Germany Weather past 2 weeks in Zittau, Saxony, Germany

Now
47 °F

Cool.


Feels Like: 47 °F
Forecast: 46 / 55 °F
Wind: 2 mph from Southeast

Location: Liberec

Current Time: Sep 5, 2015 at 8:10:50 AM

Latest Report: Sep 5, 2015 at 7:00 AM


Visibility: 13 mi

Pressure: 29.93 "Hg

Humidity: 85%

Dew point: 43 °F

Location of ZittauLocation

Historic Weather in Zittau — Graph

°F

Zittau temperature yesterday

Maximum temperature yesterday: 67 °F (at 4:00 PM)
Minimum temperature yesterday: 50 °F (at 9:00 PM)
Average temperature yesterday: 58 °F

Past Weeks' High & Low Weather Summary

 TemperatureHumidityPressure
High90 °F (Aug 31, 3:00 PM)98% (Aug 29, 7:00 AM)30.32 "Hg (Aug 29, 7:00 AM)
Low46 °F (Aug 23, 5:00 AM)27% (Aug 21, 6:00 PM)29.66 "Hg (Sep 1, 6:00 PM)
Average66 °F63%30.00 "Hg
* Reported Aug 21 7:00 AM — Sep 5 6:00 AM, Zittau, Weather by CustomWeather, © 2015

Note: Actual official high and low records may vary slightly from our data, if they occured in-between our weather recording intervals... More about our weather records

Advertising

Zittau weather history for previous 24 hours

 ConditionsComfort  
Time TempWeatherWind HumidityBarometerVisibility
6:00 AM
Sat, Sep 5
47 °FCool.1 mph87%29.93 "Hg12 mi
5:00 AM48 °FCool.2 mph87%29.94 "Hg12 mi
4:00 AM48 °FCool.1 mph84%29.94 "Hg12 mi
3:00 AM48 °FCool.1 mph86%29.95 "Hg12 mi
2:00 AM47 °FCool.1 mph84%29.96 "Hg12 mi
1:00 AM50 °FCool.2 mph82%29.96 "Hg12 mi
12:00 AM47 °FCool.1 mph89%29.98 "Hg12 mi
10:00 PM
Fri, Sep 4
50 °FPassing clouds.1 mph80%29.98 "Hg14 mi
9:00 PM50 °FPassing clouds.3 mph77%29.98 "Hg16 mi
8:00 PM54 °FPassing clouds.2 mph63%29.94 "Hg22 mi
6:00 PM63 °FMild.3 mph49%29.91 "Hg12 mi
5:00 PM66 °FScattered clouds.3 mph41%29.91 "Hg22 mi
4:00 PM67 °FScattered clouds.3 mph41%29.91 "Hg22 mi
3:00 PM67 °FScattered clouds.3 mph39%29.93 "Hg22 mi
2:00 PM66 °FPartly sunny.5 mph45%29.95 "Hg22 mi
1:00 PM64 °FScattered clouds.3 mph38%29.95 "Hg19 mi
12:00 PM63 °FScattered clouds.5 mph51%29.96 "Hg19 mi
11:00 AM61 °FPartly sunny.1 mph61%29.97 "Hg12 mi
10:00 AM58 °FPartly sunny.1 mph71%29.96 "Hg6 mi
9:00 AM56 °FFog.1 mph81%29.96 "Hg4 mi
8:00 AM54 °FFog.1 mph88%29.96 "Hg3 mi
Weather by CustomWeather, © 2015

See weather overviewHow to use our weather pages